KUIPER-00071

导读 | 豆包

KUIPER-00071是美国亚马逊柯伊伯卫星互联网计划的一颗低轨卫星,2025年7月16日,它在美国佛罗里达州空军东部试验场与其他多颗同系列卫星一同发射升空。该项目计划发射超过三千颗低轨卫星,旨在为全球提供高速低延迟的互联网接入服务,KUIPER-00071当前运行在近地轨道,处于正常工作状态,是项目大规模部署阶段的重要组成部分。

基本信息
目录编号:
64818
目录名称:
KUIPER-00071
国际标识:
2025-151C
轨道中心:
EARTH
卫星名称:
KUIPER-00071
卫星全名:
KUIPER-00071
卫星状态:
在轨 (已飞行230 天)
发射日期:
2025-07-16 UTC
国别 :
美国 (US)
星等 :
--
轨道信息
数据来源 国际轨道数据
星历时间: 2026-03-02T19:56:44+0800
12小时前
查看轨道信息
半长轴: 7007.47km
偏心率: 0.0000606
轨道倾角: 51.903°
近地点辐角 229.966°
升交点赤经 334.884°
平近点角 130.125°
近地点: 628.908km
远地点: 629.758km
周期: 97.297分钟
每日圈数: 14.799972
详细信息
使用方式:
暂无
2D轨道图
3D轨道图
轨道高度分析图
轨道倾角分析图
轨道综合分析图
查看轨道综合分析图